Regional Weather Roundup
Issued by NWS

Home | Current Version | Previous Version | Text Only | Print | Product List | Glossary Off
Versions: 1 2 3 4 5 6 7 8 9 10 11 12 13 14 15 16 17 18 19 20 21 22 23 24 25 26 27 28 29 30 31 32 33 34 35 36 37 38 39 40 41 42 43 44 45 46 47 48 49 50

304
ASUS44 KJAN 270103
RWRMS

MISSISSIPPI HOURLY WEATHER ROUNDUP
NATIONAL WEATHER SERVICE JACKSON MS
700 PM CST THU FEB 26 2015

NOTE: "FAIR: INDICATES FEW OR NO CLOUDS BELOW 12,000 FEET WITH NO
SIGNIFICANT WEATHER AND/OR OBSTRUCTIONS TO VISIBILITY.

MSZ001>002-007>008-010>013-018>021-025>028-034>036-270200-
NORTHWEST MISSISSIPPI

CITY           SKY/WX    TMP DP  RH WIND       PRES   REMARKS
CLARKSDALE     CLOUDY    32  25  74 N20       30.34R WCI  20
CLEVELAND      CLOUDY    32  29  90 N16       30.32R WCI  21
GREENWOOD        N/A    N/A N/A N/A MISG      30.30R
GREENVILLE     CLOUDY    34  27  75 N13G23    30.31R WCI  25
OLIVE BRANCH   CLOUDY    30  27  86 N16G23    30.32R WCI  19
OXFORD         CLOUDY    32  27  80 N15G21    30.29R WCI  22
TUNICA         CLOUDY    32  27  80 N14G20    30.34R WCI  22
$$

MSZ003>006-009-014>017-022>024-029>033-037>039-270200-
NORTHEAST MISSISSIPPI

CITY           SKY/WX    TMP DP  RH WIND       PRES   REMARKS
COLUMBUS AFB   NOT AVBL
CORINTH        MIX PCPN  34  27  75 NW17G23   30.25R WCI  23
GOLDN TRIANGLE MOCLDY    34  30  86 W7        30.21R WCI  28
STARKVILLE     MOCLDY    32  32 100 CALM      30.24R
TUPELO         CLOUDY    37  28  70 N12       30.23R WCI  29
$$

MSZ040-058-270200-
CENTRAL MISSISSIPPI

CITY           SKY/WX    TMP DP  RH WIND       PRES   REMARKS
JACKSON INTL   CLOUDY    34  30  85 N14       30.27R WCI  25
JACKSON HAWKNS CLOUDY    33  28  81 N9        30.27R WCI  25
MERIDIAN KEY   CLEAR     38  29  70 N10       30.21R WCI  31
MERIDIAN NAS   PTCLDY    37  29  72 N8        30.22R WCI  31
VICKSBURG      CLOUDY    36  30  79 N15       30.30R WCI  27
$$

MSZ059>079-270200-
SOUTH MISSISSIPPI

CITY           SKY/WX    TMP DP  RH WIND       PRES   REMARKS
BROOKHAVEN     MOCLDY    37  32  81 N9        30.24R WCI  31
HATTIESBURG    CLEAR     44  32  62 N5        30.18R
MCCOMB         CLEAR     42  32  67 N13       30.20R
NATCHEZ        CLOUDY    37  30  75 N14G21    30.26R WCI  29
PINE BELT      CLEAR     41  30  65 NW10      30.19R
$$

MSZ080>082-270200-
COASTAL MISSISSIPPI

CITY           SKY/WX    TMP DP  RH WIND       PRES   REMARKS
BAY ST LOUIS   CLEAR     43  34  70 CALM      30.16R
BILOXI         NOT AVBL
PASCAGOULA     CLOUDY    45  35  68 N7        30.15R
GULFPORT       CLOUDY    45  34  65 N5        30.15R
$$



USA.gov is the U.S. government's official web portal to all federal, state and local government web resources and services.